KANOPUS-V 5 (43876 NORAD) Tracking and Keplerian Element Data

This shows tracking and keplerian element data for the satellite.

Feedback or suggestion? Click here.




ElementValue
Catalog43876
NameKANOPUS-V 5
Epoch Orbit38746
Epoch Day353.69931894
Epoch Year2025
RAAN257.6907
Inclination97.3692
Eccentricity0.0001855
Argument of Perigee79.1271
Mean Anonmoly281.0175
Mean Motion15.23556419
Decay Rate2.836E-05
L11 43876U 18111A 25353.69931894 .00002836 00000+0 12157-3 0 9994
L22 43876 97.3692 257.6907 0001855 79.1271 281.0175 15.23556419387461



Live tracking and technical data element details for KANOPUS-V 5 (NORAD 43876). KANOPUS-V 5 can be tracked NOW for your location showing map with azimuth and elevation plus other details from your city location.







IsCatalogInMostPopularTable: catalog: 43876, numindb: 355
Update: records affected: 1



GetName: 43876 KANOPUS-V 5

Hit Count: updated at: Mon, 18 May 2026 08:56:24 GMT